Wind_Speed
15 16 17 16 17 16 16 16 15 16 16 16 16 15 14 11 7 8 13 11 6 3 9 7 12 3 2 3 2 3 6 4 4 2 2 3 4 4 5 7 10 7 8 5 4 4 5 3 6 14 8 20 23 19
17 16 16 17 18 18 18 18 17 17 16 16 17 16 14 10 8 7 5 6 7 5 7 15 19 21 13 10 5 2 5 7 3 3 2 1 2 1 3 4 1 3 8 7 7 6 5 12 10 6 14 23 23 25
16 15 16 17 19 19 17 18 16 15 15 14 15 14 13 11 9 7 9 13 4 3 6 4 10 21 24 24 22 5 4 4 5 3 3 3 3 2 3 2 5 6 4 5 5 4 5 8 3 6 16 24 24 20
14 15 17 17 17 16 16 15 14 15 14 13 14 12 11 11 11 11 12 18 8 3 3 6 5 5 10 17 29 40 22 11 5 2 3 2 1 3 2 3 5 2 4 2 1 5 7 6 6 12 19 19 20 18
14 14 15 15 16 16 15 16 16 15 15 15 15 14 12 12 15 19 19 10 10 2 2 6 19 10 19 27 33 36 22 8 4 3 3 3 2 4 3 3 5 3 1 3 5 4 4 5 7 10 20 19 18 20
13 13 15 15 16 17 16 17 17 18 17 19 18 16 16 16 18 10 1 6 7 7 1 4 6 4 7 29 24 13 7 5 4 2 3 3 2 2 4 3 3 4 3 5 5 3 4 1 7 15 19 20 23 23
14 14 15 17 17 19 19 20 20 20 20 21 22 20 17 15 14 3 3 4 13 13 2 4 4 4 4 12 4 4 4 3 2 2 1 2 3 3 3 3 7 7 6 7 6 3 4 5 9 9 13 20 18 15
15 15 16 16 18 19 20 20 19 21 22 23 22 19 12 8 9 6 2 7 6 4 2 3 5 4 4 3 2 1 3 3 2 2 2 2 3 3 4 5 6 8 9 18 16 8 2 10 13 9 14 17 20 18
15 15 16 17 19 20 20 20 19 20 22 20 18 9 3 1 2 5 18 12 6 4 2 2 3 3 6 5 3 3 3 2 3 1 3 3 3 3 3 3 5 7 7 10 13 15 8 16 18 16 18 16 19 16
14 15 17 18 19 20 19 20 20 22 22 14 8 4 3 2 18 12 1 1 1 1 0 2 3 3 2 2 1 3 2 2 1 4 2 4 2 3 7 6 5 6 8 9 11 13 11 7 12 16 18 19 21 20
15 16 17 18 19 20 19 19 18 20 9 7 5 2 10 14 4 2 2 1 1 2 3 3 4 2 3 3 1 2 1 2 0 4 3 2 2 4 8 7 7 7 4 6 4 5 6 7 5 9 10 9 14 19
17 17 18 18 18 19 18 17 16 14 11 11 12 10 6 4 3 3 2 3 2 2 1 2 3 4 3 1 2 2 3 1 1 2 3 3 4 6 8 7 7 7 0 2 2 5 8 3 8 7 6 7 11 22
18 19 19 20 20 18 15 13 12 14 14 2 1 3 2 1 4 1 3 3 3 2 1 2 3 1 3 3 3 2 3 1 1 2 3 1 5 6 7 6 7 3 1 2 1 5 4 5 9 9 7 12 13 11
19 21 22 20 14 11 11 10 11 10 3 1 2 5 3 3 3 3 3 2 3 3 5 2 1 2 2 3 1 3 1 1 3 2 3 2 4 7 7 5 8 8 5 1 6 5 4 5 5 11 14 19 20 17
20 23 13 11 14 11 7 7 8 5 2 2 1 3 4 3 3 4 4 1 4 4 3 3 2 2 3 3 3 2 2 1 1 2 2 3 5 5 7 8 8 7 6 3 3 4 6 8 8 8 21 28 27 26
21 17 6 15 14 10 8 10 3 1 2 2 3 3 3 1 2 3 3 2 3 4 2 2 3 3 3 1 1 2 2 2 1 2 1 3 4 5 6 7 8 7 5 5 2 3 2 6 11 16 21 26 28 33
18 3 11 18 16 11 12 4 1 2 2 3 3 3 3 3 4 4 3 2 3 3 1 2 2 1 1 2 2 3 3 4 2 1 2 3 5 6 6 6 7 7 7 7 4 6 10 13 20 18 12 18 24 26
9 14 20 21 11 13 2 2 1 2 5 4 3 2 2 2 2 2 3 1 2 1 1 1 2 1 3 3 3 3 2 2 2 2 2 2 6 6 6 7 11 12 9 9 7 8 11 14 9 9 18 23 24 25
25 29 23 15 7 3 1 3 3 3 5 2 3 2 2 3 4 5 3 3 4 2 0 1 3 4 4 3 3 1 1 2 2 2 2 4 8 7 9 12 13 11 10 10 6 4 10 16 17 21 22 27 22 23
26 25 9 6 13 3 2 2 4 3 3 2 2 3 3 3 2 3 5 5 4 3 3 4 6 4 4 3 3 3 3 2 2 2 3 4 9 11 10 10 9 13 9 8 7 7 7 8 13 16 21 22 22 21
17 0 5 11 6 5 2 2 3 3 3 3 2 3 3 2 3 5 4 5 3 3 4 5 4 4 5 5 6 4 4 3 3 3 4 4 5 7 11 14 16 12 5 2 2 5 5 7 12 16 20 19 21 22
5 5 2 6 3 4 3 6 3 3 3 3 2 3 3 2 3 3 5 2 3 4 5 6 9 10 8 10 10 14 13 11 12 10 10 7 4 3 4 8 9 4 7 8 7 4 6 6 16 20 20 21 28 30
3 4 3 6 3 3 5 5 3 3 3 3 2 3 3 2 2 5 3 4 4 5 5 8 12 15 11 19 13 17 21 14 5 6 9 9 12 13 11 15 11 6 3 7 14 13 9 8 14 16 23 23 26 27
4 3 2 3 5 4 2 3 3 3 3 2 2 3 3 1 5 3 3 3 2 3 6 12 9 8 8 9 8 9 14 14 12 11 15 11 4 5 7 6 6 6 5 4 4 10 17 19 17 17 17 21 22 21
2 3 2 5 3 3 4 3 2 2 3 2 2 3 2 2 2 2 3 3 5 7 6 4 6 8 6 6 7 10 19 18 7 8 13 16 8 5 2 5 8 7 7 4 6 12 14 18 21 19 16 18 19 20
3 4 5 3 3 3 2 3 3 3 3 2 2 3 2 2 3 4 5 8 4 6 7 6 4 5 4 2 2 2 2 14 15 5 2 12 14 10 6 5 3 4 6 12 16 14 15 16 22 20 18 18 18 18
3 5 4 4 2 2 3 3 3 2 3 2 3 3 3 3 5 2 5 6 4 10 17 15 10 6 6 6 12 13 13 13 11 13 13 13 13 12 12 9 5 8 13 14 16 14 18 15 17 18 18 18 17 19
5 3 4 2 2 2 2 3 2 2 3 3 3 4 2 3 2 2 2 11 16 18 15 16 19 17 15 14 14 17 19 21 21 20 21 23 18 14 14 16 15 12 15 16 18 17 14 16 14 20 21 19 17 20
4 3 2 3 2 2 3 2 2 2 1 1 2 2 2 2 2 2 4 13 17 13 8 7 3 8 11 14 16 13 10 9 10 12 11 4 4 12 16 14 15 16 14 14 13 7 7 7 9 11 17 18 17 20
4 4 3 2 2 2 2 4 2 2 1 1 1 2 2 2 3 5 8 10 12 10 15 11 2 10 8 7 5 4 6 9 11 10 5 5 7 16 12 5 7 11 14 17 15 10 6 5 4 11 16 17 16 13
2 2 2 1 2 0 3 1 1 1 2 2 1 2 0 1 2 6 7 5 7 11 14 14 17 10 10 9 6 2 1 6 5 4 6 8 15 15 11 9 10 9 11 16 21 23 22 11 6 12 14 14 14 13
2 2 2 1 3 2 4 3 2 1 1 1 1 2 1 0 2 2 2 1 3 5 9 11 13 13 10 8 8 7 6 8 6 3 2 9 13 12 12 11 10 8 7 9 9 10 8 5 5 10 12 12 11 9
2 2 2 2 3 2 2 3 3 4 2 1 2 3 3 3 3 3 1 3 2 1 3 5 8 11 9 10 17 20 20 20 16 13 14 13 11 9 15 13 11 11 10 9 6 5 5 7 8 8 7 8 7 10
Wind_Direction
331 333 331 327 324 324 323 322 319 316 315 312 307 310 316 303 293 322 297 282 215 256 278 254 258 253 233 217 206 326 346 260 283 72 132 183 217 232 95 157 162 153 135 174 103 122 245 132 133 162 193 154 163 172
327 324 325 324 322 321 321 319 319 317 313 314 314 314 309 312 294 316 280 292 281 240 260 280 263 248 214 238 9 232 235 278 263 6 326 260 273 299 177 134 70 129 169 168 164 199 232 186 172 159 162 155 170 165
326 324 323 324 322 322 325 327 328 331 328 323 317 313 309 314 301 306 289 301 274 263 280 245 256 246 213 236 248 247 231 246 308 224 257 256 260 144 97 166 124 6 55 118 100 210 192 209 314 150 160 165 164 165
327 328 326 326 325 325 329 336 336 336 342 345 341 331 322 317 312 310 287 282 264 261 272 284 256 180 201 244 249 220 249 288 270 225 224 258 302 18 54 144 95 240 26 92 243 259 134 161 221 172 168 158 150 149
324 329 329 331 331 329 327 330 332 334 336 335 331 330 329 326 324 317 300 267 226 220 268 283 311 269 177 218 230 221 232 252 255 352 8 317 292 23 5 54 30 0 165 151 213 244 170 202 163 151 143 152 150 142
325 328 329 331 331 329 329 326 325 325 326 330 328 320 313 317 324 335 15 201 177 8 297 302 306 281 173 202 211 192 211 205 219 102 260 284 300 80 73 88 271 295 297 196 262 286 247 358 147 163 153 156 157 154
322 322 323 329 327 325 326 325 324 324 324 324 321 313 305 300 297 215 255 277 280 301 234 291 282 266 220 193 204 144 181 150 165 238 333 273 311 50 71 66 303 332 333 328 313 222 92 182 168 170 162 155 144 134
316 316 319 324 326 327 328 327 326 326 326 326 325 320 314 287 269 269 154 333 315 253 190 265 273 307 352 170 126 342 47 30 5 249 330 354 319 42 73 266 297 3 1 20 356 337 212 118 105 106 126 138 133 137
311 313 316 322 324 326 330 332 333 333 333 329 329 323 313 325 342 296 310 296 257 240 274 322 312 311 348 5 12 26 71 9 308 14 224 62 303 65 253 251 350 7 42 344 347 27 59 124 130 133 137 137 131 135
310 309 312 318 320 323 327 330 332 334 337 333 342 1 333 306 318 313 245 54 31 204 286 255 301 279 11 8 58 97 351 166 20 270 345 58 313 252 248 268 285 337 21 18 12 8 26 33 126 146 159 157 149 146
314 314 314 317 317 318 322 329 333 340 347 357 6 313 304 322 326 23 314 95 310 282 190 236 221 290 326 28 55 46 84 14 53 274 101 8 333 283 331 254 275 293 308 359 347 348 23 74 49 136 135 141 142 148
314 315 317 317 314 312 315 326 332 343 337 315 291 297 298 346 17 1 293 301 195 239 267 250 262 213 280 180 124 0 135 127 159 291 70 27 295 298 331 327 315 330 241 221 308 342 18 49 130 92 89 127 145 146
315 317 320 319 313 308 308 317 325 326 326 312 327 327 17 321 20 271 338 324 315 334 345 321 304 270 334 26 79 84 86 167 171 57 112 212 284 310 327 341 338 355 133 122 168 286 66 66 139 138 106 107 116 128
318 321 327 329 329 299 285 300 320 337 321 26 22 320 172 259 249 210 221 246 286 312 322 282 267 75 302 31 8 58 338 55 68 73 92 277 287 308 322 342 22 350 340 67 269 215 202 112 168 171 161 152 134 131
321 325 340 3 347 333 315 307 315 319 295 272 208 243 232 242 276 275 262 291 334 298 329 2 22 48 1 49 21 44 55 59 146 141 182 261 285 309 353 1 5 9 2 269 248 277 215 145 154 155 159 153 148 138
326 329 24 353 343 317 310 319 295 249 272 243 239 267 259 319 288 350 3 356 316 323 340 22 23 35 6 52 29 235 164 154 137 97 234 290 329 360 356 349 344 336 343 327 244 213 176 168 167 166 152 148 150 149
326 263 325 330 333 307 307 286 242 236 247 246 249 223 221 239 228 228 206 256 323 36 49 12 7 206 308 70 246 194 180 178 189 312 312 321 10 358 345 342 346 337 335 333 325 195 187 176 148 137 133 150 150 155
295 305 312 320 316 309 251 201 242 258 252 239 239 246 223 253 243 214 214 209 70 39 70 181 145 329 244 201 227 185 183 193 187 199 236 315 352 357 359 348 339 335 335 325 306 175 163 152 162 169 150 148 149 155
307 311 312 298 258 273 261 208 205 258 249 258 251 213 232 244 241 237 189 191 182 151 134 143 190 201 221 213 208 234 137 167 202 252 285 313 342 343 343 355 338 339 345 334 294 208 185 189 180 166 164 160 159 159
316 316 316 259 185 207 242 218 200 253 265 248 223 220 225 225 188 210 214 187 165 172 203 217 206 206 190 208 192 162 154 167 153 320 291 302 319 338 341 331 320 320 316 329 306 229 170 156 162 164 164 162 156 158
328 230 89 141 181 229 279 241 231 229 262 250 216 205 248 189 213 198 172 151 182 214 227 223 231 222 212 229 206 210 232 185 241 214 253 294 302 320 314 322 325 295 306 322 335 321 240 188 171 166 162 155 150 150
250 207 189 191 223 210 247 232 256 282 241 256 247 220 254 240 202 168 140 179 216 216 207 217 228 227 233 239 249 238 244 239 249 256 263 259 282 309 309 302 304 267 265 280 296 290 300 180 164 159 151 139 144 142
192 215 231 197 234 218 258 186 233 221 251 251 241 250 241 229 112 132 202 216 233 219 212 220 229 221 222 237 235 244 249 237 236 232 248 255 270 289 295 289 262 220 217 242 254 254 205 181 152 140 139 131 130 130
255 242 232 222 200 260 231 229 216 249 254 247 249 271 279 291 167 234 246 254 244 228 226 213 209 215 223 232 232 237 238 225 232 247 247 250 268 298 289 239 202 198 191 183 144 152 170 158 142 128 126 128 134 138
279 259 186 260 237 241 248 243 244 257 266 257 266 275 287 352 306 313 313 299 309 325 346 55 181 196 202 209 223 231 232 216 211 228 235 225 228 151 118 104 98 105 140 156 122 103 99 105 107 108 115 136 142 142
238 226 197 245 212 203 271 279 262 282 290 284 278 294 330 336 21 7 321 335 334 359 14 28 55 86 78 79 124 112 104 180 177 175 199 174 175 169 156 141 112 86 120 140 122 110 108 113 114 120 122 128 136 145
249 260 227 227 249 264 280 255 263 267 278 300 327 335 351 31 39 347 316 346 351 353 3 13 35 57 75 80 79 86 110 126 123 109 108 124 131 134 138 132 124 115 134 134 130 127 115 112 117 120 131 144 160 171
234 259 235 206 227 207 257 284 281 308 322 328 318 17 33 43 27 309 344 318 345 8 44 50 61 70 76 79 86 89 95 106 111 108 97 80 81 96 108 112 107 127 137 134 130 128 136 139 138 134 139 151 181 192
250 247 183 240 236 233 230 235 306 266 233 341 5 15 28 40 296 310 319 335 346 1 22 25 87 101 89 85 93 97 89 107 116 96 81 58 39 64 106 100 105 116 125 135 134 109 137 166 188 166 164 173 169 180
244 181 201 219 220 226 241 174 233 180 137 70 98 69 40 350 289 306 312 338 352 336 332 337 333 188 179 151 141 122 104 88 97 107 110 123 148 140 140 151 153 139 132 132 135 142 218 356 113 165 174 174 175 178
155 135 78 268 284 134 266 327 56 112 149 123 126 86 336 298 284 273 283 310 340 356 21 23 42 77 162 186 180 148 259 196 182 149 89 157 169 177 194 199 189 173 152 149 158 173 187 231 176 163 176 182 189 193
134 130 153 229 83 54 29 353 334 326 221 101 97 123 146 17 332 282 228 246 352 19 26 44 47 27 42 89 133 161 156 137 130 138 171 170 179 171 171 183 189 189 187 184 187 192 191 196 181 185 183 188 192 205
97 159 175 62 35 55 309 61 344 307 53 163 213 176 168 204 217 259 263 218 191 39 25 27 35 50 81 96 106 110 113 119 126 119 108 101 97 150 190 196 205 214 220 225 224 221 203 192 180 171 190 203 199 197
Height
820 817 814 811 808 804 799 796 792 789 786 785 783 782 780 778 777 776 773 772 773 766 749 742 736 735 739 736 732 725 722 714 704 698 692 693 701 681 685 689 692 704 720 732 736 730 733 670 681 699 689 681 694 712
818 815 812 809 806 801 797 793 789 786 783 781 779 777 776 774 773 772 771 770 770 768 747 735 729 728 727 728 723 737 730 720 702 703 696 695 686 687 684 697 671 695 687 707 706 711 676 664 663 665 662 675 692 700
816 812 809 806 803 800 795 791 787 783 779 777 775 774 772 770 770 769 767 765 766 759 741 731 715 711 717 718 725 738 715 706 701 697 697 692 683 682 685 685 674 675 670 686 688 673 671 665 659 660 660 667 676 690
813 810 807 804 800 797 793 789 786 782 778 775 772 770 768 767 765 765 763 759 763 759 754 723 714 715 713 716 723 723 712 706 702 695 692 692 684 673 677 674 681 680 674 688 685 670 667 670 662 657 661 667 680 693
811 807 805 801 798 795 791 787 784 780 776 773 771 768 766 764 762 759 753 750 752 758 752 729 711 698 701 705 713 713 715 710 704 694 693 691 682 678 679 679 689 681 684 693 688 667 665 661 654 658 664 675 684 692
808 805 802 799 796 793 789 785 781 777 774 770 767 764 762 760 758 756 753 753 751 750 749 735 707 698 702 711 708 705 701 704 698 694 697 688 679 683 694 701 685 679 674 674 672 659 659 652 652 654 660 670 678 686
807 803 800 797 793 790 786 782 778 774 770 766 763 759 757 756 755 757 754 753 752 752 750 740 721 697 691 700 690 690 692 695 696 698 697 694 688 686 698 705 687 678 670 665 659 657 658 652 659 660 663 669 679 691
804 800 797 794 791 787 783 779 774 771 766 762 757 752 750 749 749 749 749 749 749 747 749 742 724 707 693 693 692 686 692 695 697 700 697 695 693 696 706 694 686 675 665 660 662 655 647 647 655 666 672 680 687 697
801 797 794 792 789 785 781 777 772 768 763 758 753 750 748 747 746 745 745 745 745 746 741 737 726 712 691 690 684 688 695 708 705 704 702 697 707 713 699 694 686 680 678 679 668 658 653 652 660 670 676 687 690 701
798 794 791 789 786 782 779 775 770 765 760 756 752 750 750 746 744 741 740 741 743 744 742 738 726 719 707 705 708 706 710 712 716 710 703 707 711 708 699 691 687 683 678 679 680 680 674 677 672 674 675 676 682 693
795 791 788 786 783 780 776 773 769 764 760 758 757 756 748 744 741 741 743 742 739 736 739 731 726 719 707 707 706 705 712 715 721 717 712 723 721 710 700 696 688 685 683 682 683 682 679 679 683 682 686 691 692 696
793 788 785 783 780 777 774 771 768 766 764 763 762 758 752 748 749 748 742 738 736 732 727 723 720 721 713 710 709 714 714 721 718 715 716 723 721 713 705 695 690 686 685 684 682 684 682 680 684 690 695 698 701 702
789 785 782 779 776 774 772 769 767 765 762 760 759 758 758 751 762 746 737 734 733 725 726 726 722 719 712 710 712 714 713 718 717 719 724 727 718 710 704 696 691 689 687 685 686 688 685 687 689 693 700 704 708 715
785 782 778 774 770 769 768 767 766 764 762 763 762 768 758 753 751 747 742 735 726 723 721 722 720 719 718 711 716 710 714 713 719 723 725 724 718 712 704 699 694 694 688 685 690 690 687 688 692 694 701 708 712 721
782 778 775 773 771 769 768 766 765 764 763 762 760 766 754 748 745 740 735 734 732 729 721 720 720 721 720 714 722 718 714 719 719 724 726 720 716 712 706 701 699 698 694 691 690 691 692 685 692 696 701 708 714 720
779 775 774 772 770 769 767 765 764 763 762 761 757 753 748 747 745 743 741 738 735 731 727 725 727 726 725 728 721 721 722 724 726 720 718 717 714 710 705 701 698 696 694 694 692 687 685 689 695 699 704 705 710 712
777 775 773 770 769 767 766 764 763 762 761 755 748 744 745 745 746 745 741 739 736 735 737 736 728 726 733 730 728 723 723 725 723 720 718 715 713 711 707 703 700 697 694 692 691 691 689 692 698 700 702 707 709 716
774 773 771 768 767 765 763 763 763 761 754 748 746 740 739 736 736 738 738 737 739 740 740 735 739 734 728 723 725 723 722 721 721 720 718 715 712 709 708 705 701 698 695 692 690 688 689 691 693 694 697 703 711 717
769 766 764 764 764 765 763 762 762 756 747 744 740 738 738 734 729 729 732 733 735 737 738 740 737 739 731 724 718 717 718 719 720 718 716 713 711 709 707 705 702 699 697 695 692 690 689 690 689 693 699 703 708 714
764 759 756 756 760 762 760 758 758 754 745 738 735 732 731 726 723 723 725 728 732 735 737 732 725 719 720 717 715 715 717 718 719 718 717 713 709 707 706 705 702 700 697 696 694 693 693 693 694 696 698 702 706 711
759 758 756 756 758 760 757 752 750 746 740 736 728 728 722 719 717 716 718 723 727 723 718 714 712 709 709 709 709 710 711 713 715 715 714 712 708 708 706 704 702 699 698 697 697 696 694 694 696 698 699 703 707 711
757 757 756 756 756 756 754 748 745 739 736 727 722 717 711 706 703 707 713 716 714 708 705 701 698 699 703 704 702 703 703 706 707 708 708 708 708 706 705 704 704 701 698 696 695 696 697 696 697 699 702 705 707 712
755 755 753 753 752 751 747 742 739 733 727 718 713 708 702 697 700 707 706 703 697 691 689 690 689 691 694 694 697 697 698 701 703 703 702 702 702 702 702 700 699 699 697 696 695 695 696 698 698 699 700 706 711 716
754 752 749 747 748 743 736 732 731 726 718 713 707 702 697 693 700 695 692 686 681 678 678 678 682 686 689 691 691 691 692 695 697 698 698 699 699 699 699 697 697 696 696 696 695 693 693 697 700 702 701 704 712 717
755 749 749 748 738 734 726 720 718 717 711 706 704 701 696 696 693 691 688 683 679 674 668 667 670 674 677 679 682 683 686 688 691 693 693 694 697 698 699 697 697 697 698 698 697 696 696 697 697 703 709 710 716 722
753 742 743 730 725 728 721 720 717 713 711 706 703 701 697 695 695 697 691 687 682 677 674 673 673 674 676 678 679 680 680 681 686 689 690 689 692 694 695 696 698 701 700 701 700 702 703 705 707 711 715 716 722 729
747 736 730 725 723 723 721 718 716 715 711 707 704 700 702 701 703 706 700 696 693 689 684 679 679 677 679 680 680 681 682 684 685 688 688 689 692 694 696 696 699 703 704 705 706 709 708 712 711 716 722 725 729 733
736 729 725 720 721 721 720 717 714 711 710 708 706 704 705 707 711 707 706 701 699 696 694 691 687 686 688 688 688 688 690 690 691 692 693 695 698 697 694 700 702 706 708 709 711 712 714 717 719 722 725 731 735 738
731 721 719 718 718 719 717 716 713 711 710 711 708 709 709 711 711 709 708 704 701 700 698 697 697 695 694 694 695 696 697 698 697 697 700 701 702 706 705 707 709 710 711 712 715 718 721 724 725 727 730 734 737 740
720 715 715 713 714 711 708 709 708 707 709 709 710 711 712 712 711 709 708 707 704 701 697 695 695 696 697 698 699 700 701 702 703 703 705 708 709 710 708 709 714 716 718 720 723 725 726 726 727 729 733 736 739 741
708 710 713 714 711 709 706 704 707 707 708 708 710 712 714 713 711 709 707 707 707 705 701 698 697 697 697 698 700 701 703 704 705 707 708 710 711 712 713 715 717 719 721 723 725 727 728 729 730 732 735 737 738 739
708 707 710 711 711 713 709 710 710 709 708 708 710 712 714 713 713 709 707 707 707 706 706 706 705 705 703 701 700 701 702 704 706 706 707 707 710 711 714 716 718 720 722 724 725 727 727 728 730 732 734 737 738 738
709 709 709 709 710 713 711 715 714 709 711 711 710 711 712 713 713 708 706 707 708 708 709 709 709 709 709 710 707 707 707 709 710 711 710 710 711 711 714 716 717 719 721 723 725 727 728 730 731 733 734 734 735 736